EW4026 Tauranga NZ current weather conditions

sailwx.info

Wind from 038

Air temperature 23.9° C
Dewpoint 19.6° C

Last reported at 2020-Jan-26 07:03 UTC.
Time now 2020-Jan-26 07:51 UTC

Location: S 37°44' E 176°07'.
View on Google Maps.

See reports from other nearby stations

  
Tides and Currents Weather Stations Pressure Air Temp Water Temp Dewpoint Dewpoint Depression Visibility Wind Speed Wind Dir Waves Ship Positions
date/time (UTC)wind fromknots sea level pressurealtimeterstation pressurevisibilityair tempwater tempwave heightnotes
2020-Jan-26 07:03 038 23.9
2020-Jan-26 06:47 349 23.9
2020-Jan-26 06:33 024 24.4
2020-Jan-26 06:16 019 24.4
2020-Jan-26 06:03 010 1 gusting 6 25.0
2020-Jan-26 05:47 010 2 gusting 5 25.0
2020-Jan-26 05:33 013 3 gusting 6 25.6
2020-Jan-26 05:17 057 2 gusting 6 25.6
2020-Jan-26 05:03 010 2 gusting 6 26.1
2020-Jan-26 04:46 019 1 gusting 6 26.1
2020-Jan-26 04:33 013 26.7
2020-Jan-26 04:16 319 26.7
2020-Jan-26 04:03 021 27.2
2020-Jan-26 03:48 036 26.7
2020-Jan-26 03:33 011 27.2
2020-Jan-26 03:18 007 26.7
2020-Jan-26 03:03 004 27.2
2020-Jan-26 02:47 358 4 gusting 8 27.2
2020-Jan-26 02:33 018 5 gusting 8 27.2
2020-Jan-26 02:17 011 6 gusting 11 26.7
2020-Jan-26 02:03 016 0 gusting 10 27.8
2020-Jan-26 01:47 351 0 gusting 7 28.3
2020-Jan-26 01:33 017 5 gusting 9 28.9
2020-Jan-26 01:16 009 4 gusting 8 29.4
2020-Jan-26 01:03 022 29.4
2020-Jan-26 00:46 027 4 gusting 9 30.6
2020-Jan-26 00:33 359 31.1
2020-Jan-26 00:17 006 30.6
2020-Jan-26 00:03 349 4 gusting 6 30.6
2020-Jan-26 00:00 358 30.6
2020-Jan-25 23:45 360 2 gusting 6 29.4
2020-Jan-25 23:33 359 2 gusting 7 29.4
2020-Jan-25 23:17 359 2 gusting 6 29.4
2020-Jan-25 23:03 017 3 gusting 6 29.4
2020-Jan-25 22:47 029 1 gusting 6 30.0
2020-Jan-25 22:33 294 0 gusting 2 29.4
2020-Jan-25 22:16 175 0 gusting 5 30.0
2020-Jan-25 22:03 277 0 gusting 4 29.4
2020-Jan-25 22:00 263 28.9
2020-Jan-25 21:45 246 0 gusting 5 27.2
2020-Jan-25 21:34 209 0 gusting 3 27.2
2020-Jan-25 21:17 225 26.7
2020-Jan-25 21:03 259 0 gusting 2 26.7
2020-Jan-25 20:46 242 25.0
2020-Jan-25 20:33 195 1 gusting 5 23.9
2020-Jan-25 20:16 207 0 gusting 5 22.8
2020-Jan-25 20:03 205 1 gusting 5 22.8
2020-Jan-25 19:46 208 0 gusting 3 21.7
2020-Jan-25 19:33 213 1 gusting 2 21.1
2020-Jan-25 19:30 217 0 gusting 2 20.6
2020-Jan-25 19:17 209 20.0
2020-Jan-25 19:03 209 19.4
2020-Jan-25 18:46 210 18.3
2020-Jan-25 18:33 211 17.8
2020-Jan-25 18:16 211 17.2
2020-Jan-25 18:03 211 17.2
2020-Jan-25 17:47 211 17.2
2020-Jan-25 17:33 211 17.2
2020-Jan-25 17:16 211 17.2
2020-Jan-25 17:03 213 17.2
2020-Jan-25 17:00 213 17.2
2020-Jan-25 16:48 212 17.2
2020-Jan-25 16:33 213 17.8
2020-Jan-25 16:18 208 0 gusting 2 17.2
2020-Jan-25 16:03 213 17.8
2020-Jan-25 15:47 213 17.2
2020-Jan-25 15:33 214 0 gusting 2 17.8
2020-Jan-25 15:17 214 17.8
2020-Jan-25 15:03 213 18.3
2020-Jan-25 15:00 213 17.8
2020-Jan-25 14:47 206 18.3
2020-Jan-25 14:33 204 18.9
2020-Jan-25 14:17 204 18.3
2020-Jan-25 14:03 204 18.9
2020-Jan-25 13:47 204 18.9
2020-Jan-25 13:33 203 18.9
2020-Jan-25 13:17 204 18.9
2020-Jan-25 13:03 204 19.4
2020-Jan-25 12:45 204 19.4
2020-Jan-25 12:33 204 20.0
2020-Jan-25 12:17 204 20.0
2020-Jan-25 12:03 210 0 gusting 3 20.6
2020-Jan-25 11:46 205 2 gusting 7 20.6
2020-Jan-25 11:34 213 2 gusting 5 20.6
2020-Jan-25 11:18 190 20.6
2020-Jan-25 11:03 236 1 gusting 3 21.1
2020-Jan-25 10:47 194 1 gusting 5 21.1
2020-Jan-25 10:33 200 0 gusting 5 21.7
2020-Jan-25 10:16 204 1 gusting 6 21.7
2020-Jan-25 10:03 196 2 gusting 6 22.2
2020-Jan-25 09:49 214 1 gusting 6 22.2
2020-Jan-25 09:33 204 1 gusting 6 22.8
2020-Jan-25 09:17 194 0 gusting 6 22.8
2020-Jan-25 09:03 239 1 gusting 3 23.3
2020-Jan-25 08:48 184 0 gusting 4 23.3
2020-Jan-25 08:33 236 0 gusting 4 23.9
2020-Jan-25 08:16 253 1 gusting 4 23.9
2020-Jan-25 08:03 229 0 gusting 4 23.9
2020-Jan-25 07:46 004 23.3
2020-Jan-25 07:33 007 1 gusting 2 23.9
2020-Jan-25 07:16 244 2 gusting 5 24.4
2020-Jan-25 07:03 321 26.1
2020-Jan-25 06:46 290 26.7
2020-Jan-25 06:33 351 0 gusting 3 26.7
2020-Jan-25 06:16 019 0 gusting 3 26.7
2020-Jan-25 06:03 358 0 gusting 4 27.2
2020-Jan-25 05:47 332 0 gusting 5 27.2
2020-Jan-25 05:33 349 1 gusting 6 27.8
2020-Jan-25 05:16 315 0 gusting 6 28.9
2020-Jan-25 05:03 253 0 gusting 6 29.4
2020-Jan-25 04:46 292 0 gusting 6 31.1
2020-Jan-25 04:33 194 31.7
2020-Jan-25 04:16 279 2 gusting 6 31.1
2020-Jan-25 04:03 238 2 gusting 6 31.7
2020-Jan-25 03:46 204 1 gusting 6 31.1
2020-Jan-25 03:33 181 1 gusting 8 31.1
2020-Jan-25 03:03 257 3 gusting 6 31.1
2020-Jan-25 02:47 191 31.1
2020-Jan-25 02:33 234 31.7
2020-Jan-25 02:16 167 31.1
2020-Jan-25 02:03 189 31.1
2020-Jan-25 01:49 209 2 gusting 8 30.0
2020-Jan-25 01:33 214 30.6
2020-Jan-25 01:16 204 0 gusting 6 30.0
2020-Jan-25 01:03 177 0 gusting 7 30.6
2020-Jan-25 00:47 231 29.4
2020-Jan-25 00:33 004 2 gusting 7 28.9
2020-Jan-25 00:30 315 2 gusting 7 28.9
2020-Jan-25 00:19 279 30.0
2020-Jan-25 00:03 029 29.4
2020-Jan-24 23:46 067 0 gusting 6 29.4
2020-Jan-24 23:33 352 29.4
2020-Jan-24 23:16 012 29.4
2020-Jan-24 23:03 288 28.9
2020-Jan-24 22:47 333 29.4
2020-Jan-24 22:33 003 1 gusting 3 29.4
2020-Jan-24 22:16 270 27.8
2020-Jan-24 22:03 232 27.2
2020-Jan-24 22:00 020 26.7
2020-Jan-24 21:48 341 26.7
2020-Jan-24 21:33 308 26.1
2020-Jan-24 21:17 334 25.6
2020-Jan-24 21:03 001 24.4
2020-Jan-24 21:00 002 1 gusting 3 24.4
2020-Jan-24 20:47 004 23.3
2020-Jan-24 20:33 199 22.8
2020-Jan-24 20:16 200 21.1
2020-Jan-24 20:03 199 20.6
2020-Jan-24 19:48 220 19.4
2020-Jan-24 19:33 190 0 gusting 3 18.9
2020-Jan-24 19:17 199 17.8
2020-Jan-24 19:03 221 0 gusting 1 17.2
2020-Jan-24 19:00 219 16.7
2020-Jan-24 18:47 220 15.6
2020-Jan-24 18:33 221 15.6
2020-Jan-24 18:16 221 14.4
2020-Jan-24 18:03 221 14.4
2020-Jan-24 17:47 221 14.4
2020-Jan-24 17:33 221 14.4
2020-Jan-24 17:16 221 14.4
2020-Jan-24 17:03 219 15.0
2020-Jan-24 16:46 220 14.4
2020-Jan-24 16:33 223 15.0
2020-Jan-24 16:17 211 15.0
2020-Jan-24 16:03 211 15.0
2020-Jan-24 15:48 211 15.0
2020-Jan-24 15:33 210 15.6
2020-Jan-24 15:16 211 15.6
2020-Jan-24 15:03 211 15.6
2020-Jan-24 15:00 211 15.6
2020-Jan-24 14:45 211 15.6
2020-Jan-24 14:33 199 16.1
2020-Jan-24 14:17 198 16.1
2020-Jan-24 14:03 195 16.7
2020-Jan-24 13:46 195 0 gusting 3 16.7
2020-Jan-24 13:33 211 16.7
2020-Jan-24 13:16 215 16.7
2020-Jan-24 13:03 215 17.2
2020-Jan-24 13:00 215 16.7
2020-Jan-24 12:45 206 17.2
2020-Jan-24 12:33 208 17.8
2020-Jan-24 12:17 205 17.8
2020-Jan-24 12:03 205 18.3
2020-Jan-24 11:47 205 17.8
2020-Jan-24 11:33 196 18.3
2020-Jan-24 11:17 198 18.3
2020-Jan-24 11:03 199 18.9
2020-Jan-24 11:00 199 18.3
2020-Jan-24 10:45 198 18.9
2020-Jan-24 10:33 198 19.4
2020-Jan-24 10:17 199 19.4
2020-Jan-24 10:03 199 20.0
2020-Jan-24 09:46 199 20.0
2020-Jan-24 09:33 149 20.6
2020-Jan-24 09:16 040 20.6
2020-Jan-24 09:03 039 21.1
2020-Jan-24 08:46 039 21.1
2020-Jan-24 08:33 039 21.7
2020-Jan-24 08:17 044 21.1
2020-Jan-24 08:03 043 21.7
2020-Jan-24 07:46 044 22.2
2020-Jan-24 07:33 043 22.8
2020-Jan-24 07:17 022 0 gusting 2 22.8
2020-Jan-24 07:03 253 23.3
2020-Jan-24 07:00 063 0 gusting 2 22.8